CZ-4 DEB, 28074

Orbit data source: Space-Track

CZ-4 DEB, 28074 is space debris in SSO originally from a launch on Thu, 14 Oct 1999 UTC launched from the Taiyaun Space Center, China (TSC). Debris objects in space refer to the collection of defunct objects orbiting the Earth. Examples of debris include non-operational satellites, rocket bodies, and fragments generated from explosions, collisions, or faulty payload assembly.

Loading next visibility...
Identifier
28074, 1999-057NE
Orbit
SSO
Country
Flag of CNCN / PRC
Related business
Manufacturer
Unknown
Mission
Spacecraft
Bus & Motor
Unknown
Mass
Unknown
Launch date (UTC)
1999-10-14 (27 years ago)
Launch vehicle
Unknown
Launch site
Taiyaun Space Center, China (TSC)
Object type
Payload
Rocket body
Debris
Shape & HBR
Unknown shape, 0.1 m
Radar Cross Section
Small (<0.1 m²)

Expand to show TLE details & history
Last TLE update: 14 hours ago

TLE from 14 hours ago
0 CZ-4 DEB
1 28074U 99057NE  26263.90496160  .00000062  00000-0  36528-4 0  9991
2 28074  98.8203 306.7848 0103718  84.9711  88.8845 14.34149347237215
Epoch: 2026-09-20T21:43Z
TLE epoch observation values (Epoch: 2026-09-20T21:43:08.682Z)
Latitude
4.81007°
Longitude
161.95036°
Altitude
779.654 km
Speed
7.465 km/s
True Right ascension
08h 30m 06s
True Declination
4° 46' 53"
Sunlit
Object was in daylight at epoch
Visualization orbit readout
Latitude
Unknown
Longitude
Unknown
Altitude
Unknown
Speed
Unknown
Apparent Right ascension
Unknown
Apparent Declination
Unknown
Sunlit
N/A
Visualization observer readout
Local Sidereal Time
04:32:10
Azimuth
Unknown
Elevation
Unknown
Doppler factor
Unknown
Orbital elements
Apogee altitude
849.231 km
Perigee altitude
700.848 km
Semi-major axis
7,153.176 km
Eccentricity
0.01037
Inclination
98.8203°
RAAN
306.7848°
Arg. of periapsis
84.9711°
True anomaly
90.07301°
Mean anomaly
88.8845°
Eccentric anomaly
89.47874°
Mean motion
3.58752 °/min
Orbital period
100.35 mins
BSTAR
0.000036528
Loading maneuver chart data...
Computing Atmospheric mass density...

Documentation

Showing up to 5 results
|